• In Russia
  • List of Countries
  • For 7 days
  • Water Temperature
  • Satellite Maps
  • Weather Map
  • Weather Widgets
  • user-avatar
    Login

    Hourly Weather Sydney

    Today, 30 May, Tuesday

    Time Temperature Precipitation Wind Pressure Humidity
    00:00 +5°C° 0 mm 4 mps 766 mmHg 75%
    01:00 +5°C° 0 mm 4 mps 766 mmHg 78%
    02:00 +4°C° 0 mm 4 mps 766 mmHg 80%
    03:00 +4°C° 0 mm 4 mps 766 mmHg 82%
    04:00 +3°C° 0 mm 3 mps 766 mmHg 84%
    05:00 +3°C° 0 mm 3 mps 766 mmHg 85%
    06:00 +3°C° 0 mm 3 mps 766 mmHg 86%
    07:00 +3°C° 0 mm 4 mps 766 mmHg 87%
    08:00 +7°C° 0 mm 3 mps 766 mmHg 76%
    09:00 +9°C° 0 mm 3 mps 766 mmHg 65%
    10:00 +12°C° 0 mm 3 mps 766 mmHg 54%
    11:00 +14°C° 0 mm 3 mps 765 mmHg 50%
    12:00 +16°C° 0 mm 3 mps 765 mmHg 45%
    13:00 +18°C° 0 mm 3 mps 765 mmHg 40%
    14:00 +17°C° 0 mm 3 mps 764 mmHg 47%
    15:00 +17°C° 0 mm 3 mps 764 mmHg 53%
    16:00 +16°C° 0 mm 2 mps 764 mmHg 60%
    17:00 +14°C° 0 mm 3 mps 765 mmHg 63%
    18:00 +12°C° 0 mm 3 mps 765 mmHg 67%
    19:00 +10°C° 0 mm 4 mps 765 mmHg 70%
    20:00 +10°C° 0 mm 4 mps 766 mmHg 73%
    21:00 +8°C° 0 mm 4 mps 766 mmHg 76%
    22:00 +8°C° 0 mm 4 mps 766 mmHg 79%
    23:00 +8°C° 0 mm 5 mps 766 mmHg 82%

    Tomorrow, 31 May, Wednesday

    Time Temperature Precipitation Wind Pressure Humidity
    00:00 +7°C° 0 mm 5 mps 766 mmHg 84%
    01:00 +7°C° 0 mm 5 mps 766 mmHg 87%
    02:00 +7°C° 0.2 mm 5 mps 766 mmHg 86%
    03:00 +8°C° 0.2 mm 5 mps 766 mmHg 86%
    04:00 +8°C° 0.2 mm 6 mps 767 mmHg 85%
    05:00 +8°C° 0.1 mm 6 mps 767 mmHg 83%
    06:00 +8°C° 0.1 mm 6 mps 767 mmHg 82%
    07:00 +8°C° 0.1 mm 6 mps 768 mmHg 80%
    08:00 +9°C° 0 mm 6 mps 768 mmHg 70%
    09:00 +11°C° 0 mm 7 mps 768 mmHg 59%
    10:00 +12°C° 0 mm 7 mps 769 mmHg 49%
    11:00 +12°C° 0.1 mm 7 mps 768 mmHg 46%
    12:00 +13°C° 0.1 mm 8 mps 768 mmHg 43%
    13:00 +15°C° 0.1 mm 8 mps 768 mmHg 41%
    14:00 +13°C° 0.2 mm 8 mps 768 mmHg 44%
    15:00 +13°C° 0.2 mm 8 mps 768 mmHg 47%
    16:00 +13°C° 0.2 mm 8 mps 769 mmHg 50%
    17:00 +11°C° 0.2 mm 8 mps 769 mmHg 54%
    18:00 +10°C° 0.2 mm 8 mps 770 mmHg 58%
    19:00 +7°C° 0.2 mm 8 mps 771 mmHg 61%
    20:00 +7°C° 0.1 mm 8 mps 771 mmHg 61%
    21:00 +8°C° 0.1 mm 7 mps 772 mmHg 61%
    22:00 +6°C° 0.1 mm 7 mps 772 mmHg 61%
    23:00 +6°C° 0.1 mm 7 mps 772 mmHg 62%

    Day after tomorrow, 1 June, Thursday

    Time Temperature Precipitation Wind Pressure Humidity
    00:00 +6°C° 0.1 mm 7 mps 772 mmHg 63%
    01:00 +6°C° 0.1 mm 7 mps 772 mmHg 64%
    02:00 +6°C° 0.1 mm 7 mps 772 mmHg 66%
    03:00 +5°C° 0.1 mm 7 mps 772 mmHg 67%
    04:00 +5°C° 0.1 mm 7 mps 772 mmHg 68%
    05:00 +5°C° 0.1 mm 7 mps 772 mmHg 69%
    06:00 +5°C° 0.1 mm 7 mps 773 mmHg 70%
    07:00 +5°C° 0.1 mm 7 mps 773 mmHg 71%
    08:00 +6°C° 0 mm 7 mps 773 mmHg 65%
    09:00 +9°C° 0 mm 7 mps 773 mmHg 60%
    10:00 +11°C° 0 mm 7 mps 773 mmHg 54%
    11:00 +12°C° 0.1 mm 7 mps 773 mmHg 51%
    12:00 +14°C° 0.1 mm 6 mps 772 mmHg 49%
    13:00 +16°C° 0.1 mm 6 mps 772 mmHg 46%
    14:00 +15°C° 0 mm 6 mps 772 mmHg 50%
    15:00 +15°C° 0 mm 6 mps 772 mmHg 54%
    16:00 +14°C° 0 mm 6 mps 772 mmHg 57%
    17:00 +11°C° 0 mm 6 mps 772 mmHg 65%
    18:00 +10°C° 0 mm 6 mps 773 mmHg 72%
    19:00 +8°C° 0 mm 6 mps 773 mmHg 80%
    20:00 +8°C° 0 mm 6 mps 773 mmHg 78%
    21:00 +8°C° 0 mm 6 mps 773 mmHg 77%
    22:00 +8°C° 0 mm 6 mps 774 mmHg 75%
    23:00 +7°C° 0 mm 6 mps 773 mmHg 75%

    2 June, Friday

    Time Temperature Precipitation Wind Pressure Humidity
    00:00 +7°C° 0 mm 6 mps 773 mmHg 75%
    01:00 +5°C° 0 mm 6 mps 773 mmHg 75%
    02:00 +5°C° 0 mm 6 mps 773 mmHg 75%
    03:00 +5°C° 0 mm 6 mps 773 mmHg 75%
    04:00 +5°C° 0 mm 6 mps 773 mmHg 75%
    05:00 +5°C° 0 mm 6 mps 773 mmHg 75%
    06:00 +5°C° 0 mm 6 mps 773 mmHg 75%
    07:00 +4°C° 0 mm 6 mps 774 mmHg 75%
    08:00 +8°C° 0 mm 6 mps 774 mmHg 68%
    09:00 +10°C° 0 mm 6 mps 774 mmHg 61%
    10:00 +13°C° 0 mm 6 mps 774 mmHg 54%
    11:00 +14°C° 0 mm 6 mps 773 mmHg 52%
    12:00 +15°C° 0 mm 6 mps 773 mmHg 50%
    13:00 +16°C° 0 mm 6 mps 772 mmHg 48%
    14:00 +16°C° 0 mm 6 mps 772 mmHg 52%
    15:00 +15°C° 0 mm 6 mps 772 mmHg 56%
    16:00 +15°C° 0 mm 6 mps 772 mmHg 60%
    17:00 +13°C° 0.1 mm 6 mps 772 mmHg 67%
    18:00 +11°C° 0.1 mm 6 mps 772 mmHg 73%
    19:00 +9°C° 0.1 mm 6 mps 773 mmHg 80%
    20:00 +9°C° 0.2 mm 6 mps 773 mmHg 80%
    21:00 +9°C° 0.2 mm 6 mps 773 mmHg 80%
    22:00 +9°C° 0.2 mm 6 mps 773 mmHg 80%
    23:00 +9°C° 0.1 mm 6 mps 773 mmHg 80%

    3 June, Saturday

    Time Temperature Precipitation Wind Pressure Humidity
    00:00 +8°C° 0.1 mm 6 mps 773 mmHg 80%
    01:00 +8°C° 0.1 mm 6 mps 772 mmHg 80%
    02:00 +8°C° 0.1 mm 6 mps 772 mmHg 80%
    03:00 +8°C° 0.1 mm 6 mps 772 mmHg 81%
    04:00 +8°C° 0.1 mm 6 mps 772 mmHg 81%
    05:00 +7°C° 0.1 mm 6 mps 772 mmHg 81%
    06:00 +7°C° 0.1 mm 6 mps 772 mmHg 81%
    07:00 +7°C° 0.1 mm 6 mps 772 mmHg 81%
    08:00 +9°C° 0 mm 6 mps 772 mmHg 74%
    09:00 +11°C° 0 mm 6 mps 772 mmHg 66%
    10:00 +14°C° 0 mm 6 mps 772 mmHg 59%
    11:00 +15°C° 0 mm 6 mps 772 mmHg 57%
    12:00 +16°C° 0 mm 6 mps 771 mmHg 54%
    13:00 +17°C° 0 mm 6 mps 771 mmHg 52%
    14:00 +17°C° 0 mm 6 mps 770 mmHg 55%
    15:00 +16°C° 0 mm 5 mps 770 mmHg 59%
    16:00 +16°C° 0 mm 5 mps 770 mmHg 62%
    17:00 +14°C° 0 mm 5 mps 770 mmHg 70%
    18:00 +12°C° 0 mm 5 mps 771 mmHg 79%
    19:00 +9°C° 0 mm 5 mps 771 mmHg 87%
    20:00 +9°C° 0 mm 5 mps 771 mmHg 87%
    21:00 +9°C° 0 mm 5 mps 771 mmHg 86%
    22:00 +9°C° 0 mm 5 mps 771 mmHg 86%
    23:00 +9°C° 0.2 mm 5 mps 770 mmHg 85%

    4 June, Sunday

    Time Temperature Precipitation Wind Pressure Humidity
    00:00 +8°C° 0.2 mm 5 mps 770 mmHg 84%
    01:00 +8°C° 0.2 mm 5 mps 770 mmHg 83%
    02:00 +8°C° 0.2 mm 5 mps 770 mmHg 83%
    03:00 +8°C° 0.2 mm 5 mps 769 mmHg 84%
    04:00 +8°C° 0.2 mm 5 mps 769 mmHg 84%
    05:00 +9°C° 0.2 mm 5 mps 769 mmHg 84%
    06:00 +9°C° 0.2 mm 5 mps 770 mmHg 84%
    07:00 +9°C° 0.2 mm 5 mps 770 mmHg 84%
    08:00 +12°C° 0 mm 5 mps 770 mmHg 80%
    09:00 +13°C° 0 mm 5 mps 770 mmHg 75%
    10:00 +15°C° 0 mm 4 mps 770 mmHg 71%
    11:00 +17°C° 0 mm 4 mps 769 mmHg 68%
    12:00 +18°C° 0 mm 4 mps 768 mmHg 66%
    13:00 +18°C° 0 mm 4 mps 768 mmHg 64%
    14:00 +18°C° 0 mm 3 mps 768 mmHg 67%
    15:00 +17°C° 0 mm 3 mps 768 mmHg 70%
    16:00 +17°C° 0 mm 3 mps 768 mmHg 73%
    17:00 +15°C° 0 mm 2 mps 768 mmHg 77%
    18:00 +14°C° 0 mm 2 mps 768 mmHg 81%
    19:00 +13°C° 0 mm 2 mps 768 mmHg 85%
    20:00 +12°C° 0 mm 1 mps 768 mmHg 85%
    21:00 +12°C° 0 mm 1 mps 768 mmHg 86%
    22:00 +11°C° 0 mm 1 mps 768 mmHg 87%
    23:00 +11°C° 0 mm 1 mps 768 mmHg 90%
    Show more